Regional Weather Roundup
Issued by NWS Glasgow, MT

Home | Current Version | Previous Version | Text Only | Print | Product List | Glossary On
Versions: 1 2 3 4 5 6 7 8 9 10 11 12 13 14 15 16 17 18 19 20 21 22 23 24 25 26 27 28 29 30 31 32 33 34 35 36 37 38 39 40 41 42 43 44 45 46 47 48 49 50
000
ASUS45 KGGW 252015
RWRGGW
HOURLY WEATHER ROUNDUP FOR NORTHEAST MONTANA
NATIONAL WEATHER SERVICE GLASGOW MONTANA
100 PM MST TUE NOV 25 2014

NOTE: "FAIR" INDICATES FEW OR NO CLOUDS BELOW 12,000 FEET WITH NO
SIGNIFICANT WEATHER AND/OR OBSTRUCTIONS TO VISISBILITY.

NORTHEAST MONTANA


CITY           SKY/WX    TMP DP  RH WIND       PRES   REMARKS
GLASGOW        CLOUDY    36  28  73 NW21G29   29.79R
PLENTYWOOD       N/A     32  30  92 NW8G22      N/A
WOLF POINT     PTSUNNY   39  29  67 NW22G35   29.77R
JORDAN           N/A     37  29  72 W20       29.83R
WINNETT          N/A     37  30  75 W15G26      N/A
SIDNEY         MOSUNNY   39  28  65 W22G28    29.71R
GLENDIVE       PTSUNNY   37  28  70 W23G35    29.75R
MALTA            N/A     37  29  72 NW17G30     N/A

FORT PECK REPORTS


CITY           SKY/WX    TMP DP  RH WIND       PRES   REMARKS
FORT PECK        N/A     36  30  80 W21G31      N/A
THE PINES        N/A     39  30  70 W12G24      N/A

SOUTHEAST MONTANA


CITY           SKY/WX    TMP DP  RH WIND       PRES   REMARKS
BILLINGS       CLOUDY    39  31  72 N16       29.91R
MILES CITY     PTSUNNY   39  29  67 NW28G38   29.82R
BAKER          CLOUDY    37  32  82 W20       29.75R
LIVINGSTON     LGT SNOW  34  32  92 NW10      29.96R VSB 1

CENTRAL MONTANA


CITY           SKY/WX    TMP DP  RH WIND       PRES   REMARKS
HAVRE          PTSUNNY   38  25  59 NW26G35   29.95R
LEWISTOWN      CLOUDY    33  27  78 W13       29.95S
GREAT FALLS    CLOUDY    34  27  75 VRB6      30.04R
CUT BANK       CLOUDY    35  19  52 N17       30.01R
HELENA         LGT RAIN  38  35  89 W5        30.01R
BUTTE          LGT SNOW  33  31  92 NW7       30.00R VSB 3/4
BOZEMAN        LGT RAIN  39  35  86 W12       29.99R

WESTERN MONTANA


CITY           SKY/WX    TMP DP  RH WIND       PRES   REMARKS
MISSOULA       LGT RAIN  37  33  85 N12G21    30.12R FOG
KALISPELL      NOT AVBL

NORTH DAKOTA


CITY           SKY/WX    TMP DP  RH WIND       PRES   REMARKS
WILLISTON      CLOUDY    36  30  79 NW14      29.68R
DICKINSON      CLOUDY    35  32  88 W15       29.65S
MINOT          SNOW      29  26  89 E14       29.71S VSB 1/4
BISMARCK       LGT SNOW  32  30  92 S12       29.71F VSB 3/4

SOUTHERN SASKATCHEWAN


CITY           SKY/WX    TMP DP  RH WIND       PRES   REMARKS
REGINA         CLOUDY    21  16  79 NE15      29.90R
MOOSE JAW      FLURRIES N/A N/A N/A NE13G18     N/A
ESTEVAN        LGT SNOW  23  19  86 NE22G29   29.76R VSB 3/4
SWIFT CURRENT  LGT SNOW  19  18  93 N15       29.91R



USA.gov is the U.S. government's official web portal to all federal, state and local government web resources and services.